[[{"header":{"parameterUnit":"m.s-1","parameterCategory":1,"la1":30.2992,"la2":30.254,"lo1":-89.0895,"lo2":-89.0443,"dy":0.0025,"dx":0.0025,"nx":19,"ny":19,"refTime":"2026-05-15T21:00:00:Z","depth":0,"parameterNumber":2,"parameterNumberName":"U-component_of_WINDS"},"data":[0,0,0,-1.8465,-1.8467,-1.8545,-1.8545,-1.865,-1.8651,0,0,0,0,0,0,0,0,0,0,0,-1.8445,-1.8446,-1.8465,-1.8467,-1.8545,-1.8545,-1.8649,-1.8651,0,0,0,0,0,0,0,0,0,0,0,-1.8444,-1.8445,-1.8446,-1.8467,-1.8545,-1.8545,-1.8649,-1.8589,0,0,0,0,0,0,0,0,0,0,-1.8512,-1.8496,-1.8445,-1.8446,-1.8468,-1.8545,-1.8545,-1.8586,-1.8593,-1.8616,0,-1.8638,0,-1.8646,-1.8658,-1.8658,0,0,0,-1.8465,-1.849,-1.8509,-1.8446,-1.8469,-1.8545,-1.8509,-1.8589,-1.8597,-1.8625,-1.8639,-1.8643,-1.8647,-1.8658,-1.8659,-1.8801,-1.8802,0,0,-1.8461,-1.846,-1.8504,-1.8514,-1.8502,-1.8507,-1.8512,-1.8594,-1.8609,-1.8639,-1.8645,-1.8649,-1.8659,-1.866,-1.88,-1.8801,0,0,0,-1.845,-1.8457,-1.8474,-1.851,-1.8523,-1.8509,-1.8515,-1.8606,-1.8611,-1.8646,-1.865,-1.866,-1.8661,-1.88,-1.8801,-1.8837,0,0,0,-1.8447,-1.8451,-1.8472,-1.8472,-1.8522,-1.8566,-1.8525,-1.8605,-1.8615,-1.865,-1.866,-1.8662,-1.8799,-1.88,-1.8835,-1.8855,0,0,0,-1.8439,-1.845,-1.8462,-1.8472,-1.8506,-1.8564,-1.8574,-1.8607,-1.8617,-1.8658,-1.8662,-1.8798,-1.88,-1.8832,-1.8851,-1.8892,0,0,0,-1.843,-1.8493,-1.8463,-1.8535,-1.8505,-1.8586,-1.8574,-1.8634,-1.8674,-1.866,-1.8799,-1.8801,-1.8831,-1.8848,-1.889,-1.8927,-1.8943,0,0,-1.851,-1.8503,-1.8546,-1.852,-1.8607,-1.8574,-1.8666,-1.8703,-1.8708,-1.877,-1.8773,-1.8835,-1.885,-1.8892,-1.9029,-1.9042,0,0,0,-1.8571,-1.8602,-1.8625,-1.8662,-1.8692,-1.8719,-1.8742,-1.8755,-1.8808,-1.8739,-1.8862,-1.887,-1.8895,-1.8913,-1.8923,-1.8944,-1.8809,-1.8809,-1.8808,-1.8683,-1.8686,-1.8757,-1.8768,-1.8805,-1.8828,-1.8858,-1.888,-1.8872,-1.8901,-1.8919,-1.9002,-1.9023,-1.9031,-1.9053,-1.8939,-1.8939,-1.8939,-1.8939,-1.8801,-1.8845,-1.8832,-1.8897,-1.8899,-1.8953,-1.8978,-1.897,-1.9021,-1.8989,-1.901,-1.8974,-1.9045,-1.9064,-1.8942,-1.8942,-1.8941,-1.8941,-1.8941,-1.8875,-1.8896,-1.8912,-1.8966,-1.9008,-1.9017,-1.9067,-1.9067,-1.9068,-1.9089,-1.9109,-1.9108,-1.9108,-1.9098,-1.9099,-1.9099,-1.9099,-1.9099,-1.91,-1.8946,-1.8962,-1.9004,-1.904,-1.9064,-1.9096,-1.912,-1.9143,-1.917,-1.9166,-1.9166,-1.9156,-1.9051,-1.9025,-1.9104,-1.9103,-1.9103,-1.9102,-1.9102,-1.9065,-1.9038,-1.9102,-1.9126,-1.9169,-1.9211,-1.921,-1.9259,-1.9279,-1.9303,-1.9288,-1.921,-1.9204,-1.9195,-1.9174,-1.9287,-1.9287,-1.9287,-1.9287,-1.9128,-1.9124,-1.919,-1.9229,-1.9266,-1.9272,-1.9345,-1.9364,-1.938,-1.9392,-1.9376,-1.9347,-1.9339,-1.9337,-1.9326,-1.9305,-1.9449,-1.945,-1.945,-1.9201,-1.9201,-1.9263,-1.9278,-1.9311,-1.934,-1.9409,-1.9454,-1.9466,-1.9456,-1.9402,-1.9395,-1.9349,-1.9334,-1.9323,-1.9305,-1.9268,0,0]},{"header":{"parameterUnit":"m.s-1","parameterCategory":1,"la1":30.2992,"la2":30.254,"lo1":-89.0895,"lo2":-89.0443,"dy":0.0025,"dx":0.0025,"nx":19,"ny":19,"refTime":"2026-05-15T21:00:00:Z","depth":0,"parameterNumber":3,"parameterNumberName":"V-component_of_WINDS"},"data":[0,0,0,3.7728,3.7729,3.7785,3.7785,3.7868,3.7869,0,0,0,0,0,0,0,0,0,0,0,3.772,3.7721,3.7727,3.7729,3.7785,3.7785,3.7868,3.7869,0,0,0,0,0,0,0,0,0,0,0,3.7719,3.772,3.7722,3.7729,3.7785,3.7785,3.7868,3.7821,0,0,0,0,0,0,0,0,0,0,3.7765,3.7767,3.772,3.7722,3.773,3.7785,3.7785,3.7819,3.7824,3.7848,0,3.7874,0,3.7873,3.7875,3.7876,0,0,0,3.7722,3.7762,3.7769,3.7722,3.773,3.7785,3.7758,3.7821,3.7828,3.7855,3.7875,3.7878,3.7874,3.7876,3.7877,3.8042,3.8043,0,0,3.7719,3.7734,3.7765,3.7774,3.7768,3.7756,3.776,3.7825,3.7846,3.7875,3.7879,3.7876,3.7877,3.7877,3.8041,3.8042,0,0,0,3.7715,3.7733,3.7738,3.7771,3.778,3.7758,3.7762,3.7844,3.7844,3.788,3.7877,3.7877,3.7879,3.804,3.8042,3.811,0,0,0,3.7713,3.773,3.7737,3.7747,3.7779,3.7813,3.7779,3.784,3.7846,3.7876,3.7877,3.7879,3.8039,3.8041,3.8105,3.8139,0,0,0,3.7713,3.773,3.7741,3.7747,3.7772,3.7812,3.7816,3.7841,3.7845,3.7876,3.788,3.8038,3.804,3.8101,3.8132,3.8185,0,0,0,3.7718,3.7802,3.7743,3.7835,3.7772,3.7854,3.7815,3.7875,3.791,3.7878,3.8039,3.8041,3.81,3.8128,3.8181,3.8232,3.8255,0,0,3.7832,3.7816,3.7869,3.7818,3.7915,3.7844,3.795,3.7968,3.7957,3.8014,3.8018,3.8107,3.8132,3.8184,3.8381,3.84,0,0,0,3.791,3.7948,3.7971,3.8005,3.8021,3.8036,3.8036,3.8042,3.8089,3.799,3.8141,3.8155,3.8185,3.8208,3.8224,3.8248,3.8053,3.8053,3.8053,3.8094,3.8075,3.816,3.8148,3.8181,3.818,3.8204,3.8212,3.8183,3.8219,3.8235,3.8357,3.8385,3.8397,3.8422,3.8262,3.8262,3.8263,3.8263,3.8258,3.8308,3.8267,3.8335,3.8314,3.8371,3.8372,3.8349,3.8398,3.8344,3.837,3.8311,3.8418,3.8439,3.8268,3.8267,3.8266,3.8266,3.8265,3.8374,3.8395,3.8401,3.8447,3.8484,3.8469,3.8516,3.8496,3.8477,3.8502,3.8516,3.8514,3.8509,3.851,3.8511,3.8511,3.8512,3.8512,3.8512,3.8492,3.8497,3.854,3.8563,3.8581,3.8602,3.86,3.8617,3.863,3.8611,3.8611,3.8577,3.8433,3.8396,3.8519,3.8517,3.8517,3.8516,3.8516,3.8662,3.862,3.8687,3.8706,3.8729,3.8766,3.8739,3.8775,3.8786,3.8809,3.8771,3.8668,3.865,3.8637,3.8606,3.8776,3.8776,3.8776,3.8776,3.8759,3.8748,3.8811,3.8841,3.8868,3.885,3.8924,3.8922,3.8914,3.8919,3.8892,3.885,3.8838,3.8826,3.881,3.878,3.8991,3.8991,3.8991,3.8862,3.8852,3.892,3.8912,3.8928,3.8942,3.901,3.9045,3.9027,3.8999,3.8922,3.8913,3.8845,3.8824,3.8793,3.8768,3.8714,0,0]}]]